Orr, MN

11:13 PM CDT on July 23, 2017 (GMT -0500)
Orr Regional

Weather History for KORB - October, 2012

Change the Weather History Date:

Sunday, October 28, 2012

  Actual Average Record
Temperature  
Mean Temperature 26 °F -  
Max Temperature 28 °F 42 °F 60 °F (2005)
Min Temperature 23 °F 27 °F 17 °F (2013)
Degree Days  
Heating Degree Days 40    
Moisture  
Dew Point 22 °F    
Average Humidity 82    
Maximum Humidity 93    
Minimum Humidity 64    
Precipitation  
Precipitation 0.03 in - - ()
Sea Level Pressure  
Sea Level Pressure 30.28 in    
Wind  
Wind Speed 1 mph (NW)    
Max Wind Speed 7 mph    
Max Gust Speed -    
Visibility 8 miles    
Events Snow    
Averages and records for this station are not official NWS values.
T = Trace of Precipitation, MM = Missing Value Source: NWS Daily Summary

Daily Weather History Graph

Daily Weather History Graph

Search for Another Location

Airport or City:

Trip Planner

Search our weather history database for the weather conditions in past years. The results will help you decide how hot, cold, wet, or windy it might be!

Date:

Astronomy

Oct. 28, 2012 Rise Set
Actual Time 7:51 AM CDT 5:58 PM CDT
Civil Twilight 7:18 AM CDT 6:30 PM CDT
Nautical Twilight 6:42 AM CDT 7:07 PM CDT
Astronomical Twilight 6:06 AM CDT 7:43 PM CDT
Moon 5:16 PM CDT (10/28) 6:42 AM CDT (10/28)
Length of Visible Light 11h 11m
Length of Day
10h 07m
Waxing Gibbous, 99% of the Moon is Illuminated
Oct 28
Waxing Gibbous
Oct 29
Full
Nov 6
Last Quarter
Nov 13
New
Nov 20
First Quarter

Hourly Weather History & Observations

Time (CDT) Temp. Windchill Dew Point Humidity Pressure Visibility Wind Dir Wind Speed Gust Speed Precip Events Conditions
12:13 AM 28.4 °F - 17.6 °F 64% 30.29 in 10.0 mi Calm Calm - N/A   Overcast
12:33 AM 28.4 °F 24.6 °F 17.6 °F 64% 30.29 in 10.0 mi NW 3.5 mph - N/A   Overcast
12:53 AM 26.6 °F 19.1 °F 19.4 °F 74% 30.30 in 10.0 mi NW 6.9 mph - N/A   Overcast
1:13 AM 26.6 °F 21.2 °F 19.4 °F 74% 30.30 in 7.0 mi NW 4.6 mph - N/A   Overcast
1:33 AM 26.6 °F 22.6 °F 21.2 °F 80% 30.30 in 10.0 mi NW 3.5 mph - N/A   Overcast
1:53 AM 26.6 °F - 19.4 °F 74% 30.30 in 7.0 mi Calm Calm - N/A Snow Light Snow
2:13 AM 24.8 °F 19.1 °F 19.4 °F 80% 30.30 in 10.0 mi NW 4.6 mph - N/A Snow Light Snow
2:33 AM 24.8 °F - 19.4 °F 80% 30.29 in 10.0 mi Calm Calm - N/A Snow Light Snow
2:53 AM 24.8 °F - 17.6 °F 74% 30.30 in 10.0 mi Calm Calm - N/A   Overcast
3:13 AM 24.8 °F - 19.4 °F 80% 30.29 in 10.0 mi Calm Calm - N/A   Overcast
3:33 AM 24.8 °F - 19.4 °F 80% 30.29 in 10.0 mi Calm Calm - N/A   Overcast
3:53 AM 24.8 °F - 21.2 °F 86% 30.28 in 10.0 mi Calm Calm - N/A   Overcast
4:13 AM 24.8 °F - 21.2 °F 86% 30.28 in 10.0 mi Calm Calm - N/A   Overcast
4:34 AM 24.8 °F - 21.2 °F 86% 30.28 in 7.0 mi Calm Calm - N/A Snow Light Snow
4:53 AM 24.8 °F - 19.4 °F 80% 30.28 in 3.0 mi Calm Calm - N/A Snow Light Snow
5:13 AM 24.8 °F - 19.4 °F 80% 30.28 in 4.0 mi Calm Calm - N/A Snow Light Snow
5:33 AM 24.8 °F - 19.4 °F 80% 30.29 in 2.0 mi Calm Calm - N/A   Overcast
5:53 AM 23.0 °F - 19.4 °F 86% 30.29 in 1.8 mi Calm Calm - N/A Snow Snow
6:13 AM 23.0 °F - 19.4 °F 86% 30.29 in 1.8 mi Calm Calm - N/A Snow Light Snow
6:33 AM 23.0 °F - 19.4 °F 86% 30.29 in 2.0 mi Calm Calm - N/A Snow Light Snow
6:53 AM 23.0 °F - 19.4 °F 86% 30.29 in 2.0 mi Calm Calm - 0.01 in Snow Snow
7:13 AM 23.0 °F - 19.4 °F 86% 30.29 in 2.0 mi Calm Calm - N/A   Mostly Cloudy
7:33 AM 23.0 °F - 19.4 °F 86% 30.29 in 1.8 mi Calm Calm - N/A Snow Snow
7:53 AM 23.0 °F - 21.2 °F 93% 30.29 in 1.8 mi Calm Calm - 0.01 in Snow Light Snow
8:13 AM 23.0 °F - 19.4 °F 86% 30.29 in 1.5 mi Calm Calm - N/A   Unknown
8:33 AM 23.0 °F - 19.4 °F 86% 30.30 in 1.8 mi Calm Calm - 0.01 in Snow Light Snow
8:53 AM 23.0 °F - 19.4 °F 86% 30.29 in 7.0 mi Calm Calm - 0.01 in Snow Light Snow
9:33 AM 24.8 °F - 19.4 °F 80% 30.29 in 10.0 mi Calm Calm - N/A   Overcast
9:53 AM 24.8 °F - 19.4 °F 80% 30.29 in 10.0 mi Calm Calm - N/A   Overcast
10:13 AM 24.8 °F - 21.2 °F 86% 30.29 in 10.0 mi Calm Calm - N/A   Overcast
10:33 AM 24.8 °F - 21.2 °F 86% 30.28 in 10.0 mi Calm Calm - N/A   Overcast
10:53 AM 24.8 °F - 21.2 °F 86% 30.28 in 10.0 mi Calm Calm - N/A   Overcast
11:13 AM 24.8 °F - 21.2 °F 86% 30.28 in 10.0 mi Calm Calm - N/A   Overcast
11:34 AM 26.6 °F - 21.2 °F 80% 30.28 in 10.0 mi Calm Calm - N/A   Overcast
12:14 PM 26.6 °F - 21.2 °F 80% 30.28 in 10.0 mi Calm Calm - N/A   Scattered Clouds
12:33 PM 26.6 °F - 21.2 °F 80% 30.28 in 10.0 mi Calm Calm - N/A   Scattered Clouds
12:53 PM 26.6 °F 22.6 °F 23.0 °F 86% 30.27 in 10.0 mi NNE 3.5 mph - N/A   Scattered Clouds
1:13 PM 26.6 °F - 21.2 °F 80% 30.27 in 10.0 mi Calm Calm - N/A   Scattered Clouds
1:33 PM 26.6 °F - 21.2 °F 80% 30.26 in 10.0 mi Calm Calm - N/A   Mostly Cloudy
1:54 PM 28.4 °F - 21.2 °F 74% 30.27 in 10.0 mi Calm Calm - N/A   Overcast
2:13 PM 28.4 °F - 21.2 °F 74% 30.27 in 10.0 mi Calm Calm - N/A   Mostly Cloudy
2:34 PM 28.4 °F - 21.2 °F 74% 30.26 in 10.0 mi Calm Calm - N/A   Scattered Clouds
2:53 PM 28.4 °F - 21.2 °F 74% 30.26 in 10.0 mi Calm Calm - N/A   Mostly Cloudy
3:13 PM 28.4 °F - 21.2 °F 74% 30.26 in 10.0 mi Calm Calm - N/A   Mostly Cloudy
3:33 PM 28.4 °F - 23.0 °F 80% 30.26 in 10.0 mi Calm Calm - N/A   Mostly Cloudy
3:53 PM 28.4 °F - 23.0 °F 80% 30.27 in 10.0 mi Calm Calm - N/A   Mostly Cloudy
4:13 PM 28.4 °F - 23.0 °F 80% 30.27 in 10.0 mi Calm Calm - N/A   Mostly Cloudy
4:33 PM 28.4 °F - 23.0 °F 80% 30.27 in 10.0 mi Calm Calm - N/A   Overcast
4:53 PM 28.4 °F - 23.0 °F 80% 30.27 in 10.0 mi Calm Calm - N/A   Overcast
5:13 PM 28.4 °F - 23.0 °F 80% 30.28 in 10.0 mi Calm Calm - N/A   Overcast
5:33 PM 28.4 °F - 23.0 °F 80% 30.28 in 10.0 mi Calm Calm - N/A   Overcast
5:53 PM 28.4 °F - 24.8 °F 86% 30.27 in 10.0 mi Calm Calm - N/A   Overcast
6:13 PM 28.4 °F - 23.0 °F 80% 30.27 in 10.0 mi Calm Calm - N/A   Overcast
6:33 PM 28.4 °F - 24.8 °F 86% 30.28 in 10.0 mi Calm Calm - N/A   Overcast
6:53 PM 28.4 °F - 24.8 °F 86% 30.28 in 10.0 mi Calm Calm - N/A   Overcast
7:13 PM 28.4 °F - 24.8 °F 86% 30.28 in 10.0 mi Calm Calm - N/A   Overcast
7:33 PM 28.4 °F - 24.8 °F 86% 30.28 in 10.0 mi Calm Calm - N/A   Overcast
7:53 PM 28.4 °F - 24.8 °F 86% 30.28 in 10.0 mi Calm Calm - N/A   Overcast
8:53 PM 28.4 °F - 24.8 °F 86% 30.28 in 10.0 mi Calm Calm - N/A   Overcast
9:13 PM 28.4 °F - 24.8 °F 86% 30.29 in 10.0 mi Calm Calm - N/A   Overcast
9:33 PM 28.4 °F - 24.8 °F 86% 30.29 in 10.0 mi Calm Calm - N/A   Overcast
9:53 PM 28.4 °F - 24.8 °F 86% 30.29 in 10.0 mi Calm Calm - N/A   Overcast
10:13 PM 28.4 °F - 24.8 °F 86% 30.29 in 10.0 mi Calm Calm - N/A   Overcast
10:33 PM 28.4 °F - 24.8 °F 86% 30.30 in 10.0 mi Calm Calm - N/A   Overcast
10:53 PM 28.4 °F - 24.8 °F 86% 30.29 in 10.0 mi Calm Calm - N/A   Overcast
11:13 PM 28.4 °F - 24.8 °F 86% 30.29 in 10.0 mi Calm Calm - N/A   Overcast
11:53 PM 28.4 °F - 24.8 °F 86% 30.29 in 10.0 mi Calm Calm - N/A   Overcast